« Back
NWS Peachtree City, Ga » Text Product » GA Regional Weather Roundup


Printer-friendly Version
Current Version              Previous Versions:   1  2  3  4  5  6  7  8  9  

Regional Weather Roundup

920
ASUS42 KFFC 090403
RWRGA
WEATHER ROUNDUP FOR GEORGIA
NATIONAL WEATHER SERVICE PEACHTREE CITY GA
1100 PM EST MON FEB 08 2016

NOTE: "FAIR" INDICATES FEW OR NO CLOUDS BELOW 12,000 FEET WITH NO
SIGNIFICANT WEATHER AND/OR OBSTRUCTIONS TO VISIBILITY.

* = USE WITH CAUTION. THE STATIONS MARKED WITH AN ASTERISK MAY NOT
REPORT WEATHER SUCH AS PRECIPITATION, FOG, OR THUNDER AND ARE NOT
QUALITY CONTROLLED BY NWS.

THE REMARK "TC" DENOTES TEMPERATURE READING IN DEGREES CELSIUS.

GAZ001>058-090500-
NORTH GEORGIA

CITY           SKY/WX    TMP DP  RH WIND       PRES   REMARKS
ATLANTA        PTCLDY    37  22  54 W14       29.82F WCI  28
ATHENS         PTCLDY    40  26  57 W16G26    29.77R WCI  31
CHAMBLEE       PTCLDY    37  23  56 NW17G25   29.81F WCI  27
PEACHTREE CITY CLEAR     39  22  50 W9G20     29.85S WCI  33
ROME           CLOUDY    38  21  50 NW16      29.85F WCI  29
WEST ATLANTA   PTCLDY    38  20  48 W10       29.83S WCI  31
GAINESVILLE    CLOUDY    34  21  59 NW13G23   29.78S WCI  25
CARTERSVILLE   CLOUDY    37  24  59 CALM      29.85F


CITY           SKY/WX    TMP DP  RH WIND       PRES   REMARKS
MARIETTA       MOCLDY    36  25  63 W12       29.81F WCI  28
KENNESAW*      PTCLDY    36  21  55 NW8       29.83F WCI  29
BLAIRSVILLE*     N/A     31   2  28 NW10G18   29.77S WCI  22
$$

GAZ059>098-102>109-090500-
CENTRAL GEORGIA

CITY           SKY/WX    TMP DP  RH WIND       PRES   REMARKS
AUGUSTA-BUSH   CLEAR     37  29  72 W6        29.77R WCI  32
AUGUSTA-DANIEL CLEAR     45  21  38 W8        29.76R
COLUMBUS       CLEAR     43  20  39 N16G24    29.89R
MACON          CLEAR     40  25  55 W9        29.83R WCI  34
ROBINS AFB     CLEAR     43  22  43 W12       29.83R


CITY           SKY/WX    TMP DP  RH WIND       PRES   REMARKS
LAGRANGE*      PTCLDY    42  26  51 NW10      29.87F
SYLVANIA*      CLEAR     41  39  91 NW6       29.79S
MILLEDGEVILLE* CLEAR     43  27  52 W9        29.81R
$$

GAZ099>101-110>166-090500-
SOUTH GEORGIA

CITY           SKY/WX    TMP DP  RH WIND       PRES   REMARKS
SAVANNAH       PTCLDY    43  40  89 W8        29.78S
VALDOSTA       CLOUDY    50  29  44 VRB6      29.88R
ALMA           CLEAR     45  34  65 W7        29.83R
ST SIMONS      CLOUDY    48  46  93 W5        29.81R
FT STEWART     MOCLDY    42  40  93 W6        29.78R
ALBANY         CLEAR     45  24  43 W7        29.91R
HUNTER AFB     PTCLDY    44  43  98 SW7       29.76R
MOODY AFB      CLOUDY    47  28  48 W9        29.86R
BRUNSWICK      CLOUDY    46  45  93 W6        29.82S


CITY           SKY/WX    TMP DP  RH WIND       PRES   REMARKS
MOULTRIE*      CLEAR     45  30  57 W6        29.89R
VIDALIA*       CLEAR     43  32  65 W5        29.81R
WAYCROSS*      CLOUDY    48  40  73 NW8       29.83R
DOUGLAS*       CLEAR     43  32  65 W3        29.87R
$$




USA.gov is the U.S. government's official web portal to all federal, state and local government web resources and services.